sat.trackr.live / text

‹ back to catalog

GAOFEN DUOMO (GFDM)

NORAD 45856 · 2020-042A

PAYLOAD ACTIVE UNKNOWN

§ Identity

Operator
Country
PRC
Launch date
2020-07-03
Launch site
TAISC
Launch vehicle
Mass (kg)
RCS (m²)

External: N2YO · Heavens-Above · Gunter

§ Orbital elements

Epoch: 2026-05-25T04:07:08.049216Z

Period
97.51 min
Inclination
97.7755°
Eccentricity
0.0011781
Mean motion
14.76840428 rev/d
Perigee alt
631.0 km
Apogee alt
647.6 km
Semi-major
7,017.5 km
B*
1.6947e-5
RAAN
205.8937°
Arg perigee
141.4321°
Mean anomaly
218.7733°
Rev number
31,761

§ Raw data

GAOFEN DUOMO (GFDM)1 45856U 20042A   26145.17162094  .00000070  00000+0  16947-4 0  99912 45856  97.7755 205.8937 0011781 141.4321 218.7733 14.76840428317611

JSON: /api/v1/satellites/45856 · /tle

For live sub-satellite position, see the globe view (requires WebGL).

§ Visibility from observer

Set your observer location to see the next 7 days of passes ≥ 10°. The values pass through the URL so the page stays shareable.

No JS? Fill the form by hand. The geolocation button needs JavaScript.

§ Radio — SatNOGS DB

ModeDescriptionDownlinkUplink
FM S-band telemetry 2.283 GHz

1 transmitter · refreshed weekly from db.satnogs.org